GW2523 Weather Reports


time (UTC)temp
C
wind
direction
speed
KPH
gust
KPH
rain 1hr
cm
rain 24hr
cm
rain mn
cm
humidity
%
barometer
mb
20260504223046 10 45 0.0 0.0 0.00 0.00 0.00 83 1010.6
20260504221601 10 42 0.0 0.0 0.00 0.00 0.00 84 1010.7
20260504220038 10 57 0.0 0.0 0.00 0.00 0.00 84 1010.7
20260504214537 11 60 0.0 0.0 0.00 0.00 0.00 84 1010.8
20260504213039 11 60 0.0 0.0 0.00 0.00 0.00 84 1010.9
20260504211534 11 40 0.0 0.0 0.00 0.00 0.00 83 1010.8
20260504210031 11 59 0.0 0.0 0.00 0.00 0.00 83 1010.9
20260504204528 12 58 0.0 0.0 0.00 0.00 0.00 83 1010.9
20260504203024 12 58 0.0 6.4 0.00 0.00 0.00 83 1010.9
20260504201526 12 63 0.0 0.0 0.00 0.00 0.00 82 1011.1
20260504200021 12 61 0.0 0.0 0.00 0.00 0.00 81 1011.0
20260504194522 13 38 3.2 6.4 0.00 0.00 0.00 80 1011.0
20260504193018 13 66 3.2 8.0 0.00 0.00 0.00 80 1011.0
20260504191512 13 22 3.2 8.0 0.00 0.00 0.00 79 1011.0
20260504190017 14 47 4.8 12.9 0.00 0.00 0.00 77 1010.9
20260504184523 15 28 6.4 16.1 0.00 0.00 0.00 76 1010.8
20260504183004 15 355 4.8 17.7 0.00 0.00 0.00 75 1010.6
20260504181501 15 22 12.9 19.3 0.00 0.00 0.00 74 1010.5
20260504180100 15 47 8.0 20.9 0.00 0.00 0.00 74 1010.4
20260504174557 16 30 6.4 12.9 0.00 0.00 0.00 74 1010.2
20260504173101 16 27 8.0 16.1 0.00 0.00 0.00 73 1010.1
20260504171556 16 24 6.4 14.5 0.00 0.00 0.00 72 1010.1
20260504081511 17 240 19.3 27.4 0.00 0.00 0.00 68 1009.7
20260504044535 15 227 0.0 8.0 0.00 0.00 0.00 67 1008.5
20260504043033 15 260 0.0 14.5 0.00 0.00 0.00 66 1008.4
20260504041529 15 259 8.0 12.9 0.00 0.00 0.00 66 1008.6
20260504040026 16 246 4.8 11.3 0.00 0.00 0.00 65 1008.4
20260504034522 16 234 0.0 0.0 0.00 0.00 0.00 64 1008.3
20260504033019 16 213 0.0 8.0 0.00 0.00 0.00 63 1008.2
20260504031517 16 240 3.2 8.0 0.00 0.00 0.00 62 1008.2
20260504030014 16 242 1.6 8.0 0.00 0.00 0.00 60 1008.0
20260504024512 17 250 3.2 12.9 0.00 0.00 0.00 59 1008.1
20260504023011 17 261 4.8 8.0 0.00 0.00 0.00 58 1008.0
20260504021510 17 261 0.0 6.4 0.00 0.00 0.00 57 1008.0
20260504020009 17 260 1.6 8.0 0.00 0.00 0.00 56 1007.9
20260504014504 17 264 3.2 6.4 0.00 0.00 0.00 54 1007.7
20260504013002 17 275 4.8 14.5 0.00 0.00 0.00 53 1007.7
20260504011501 18 261 1.6 12.9 0.00 0.00 0.00 52 1007.7
20260504010059 18 294 8.0 17.7 0.00 0.00 0.00 53 1007.7
20260504004556 18 275 4.8 12.9 0.00 0.00 0.00 54 1007.5
20260504003054 18 272 6.4 19.3 0.00 0.00 0.00 54 1007.6
20260504001553 18 286 6.4 16.1 0.00 0.00 0.00 54 1007.6
20260504000123 18 246 8.0 16.1 0.00 0.00 0.00 52 1007.7
20260503234547 18 257 6.4 19.3 0.00 0.00 0.00 50 1007.5
20260503233044 19 266 1.6 14.5 0.00 0.00 0.00 49 1007.8
20260503231543 19 243 1.6 8.0 0.00 0.00 0.00 48 1007.8
20260503230042 19 261 0.0 11.3 0.00 0.00 0.00 47 1007.7
20260503224540 19 262 4.8 12.9 0.00 0.00 0.00 47 1007.8